CAPE
24 31 45 41 54 62 51 64 62 54 50 48 43 21 22 24 7 25 3 1 0 9 11 15 7 20 0 0 0 0 0 0 13 2 0 0 14 28 7 18 17 32 26 18 1 0 11
42 38 46 38 58 50 41 53 60 50 49 53 47 30 16 18 10 40 2 0 1 13 7 14 9 20 0 6 0 0 0 0 0 7 5 7 3 30 32 14 32 17 26 11 11 2 11
36 42 53 45 57 64 66 61 43 47 51 54 46 38 18 18 9 27 16 5 6 3 0 7 4 19 16 0 0 0 0 0 3 29 22 11 7 57 22 12 3 27 92 49 37 1 10
26 25 37 37 53 51 54 51 51 37 66 62 67 37 37 9 6 21 14 12 4 0 0 7 18 22 2 0 0 0 0 1 31 55 42 31 39 48 44 8 3 81 51 59 8 0 0
25 16 31 51 62 68 64 86 76 60 61 67 38 19 19 26 16 50 8 10 6 3 11 14 27 5 1 0 0 0 0 11 28 18 17 19 49 43 26 7 34 33 17 11 0 6 18
45 52 44 38 42 74 66 90 78 88 71 66 22 23 24 30 46 33 13 1 2 11 42 36 14 3 0 0 0 0 0 0 15 20 20 35 69 50 14 22 56 52 0 0 0 139 146
52 60 64 69 77 71 67 67 69 85 68 80 8 21 12 24 27 13 0 0 3 16 25 0 0 0 0 0 0 0 0 0 3 10 14 45 48 16 50 19 19 1 0 127 78 151 129
51 57 49 67 81 64 90 94 87 76 74 73 37 4 7 16 21 7 0 0 0 0 0 0 0 0 0 0 0 0 0 20 38 30 17 31 14 20 0 8 8 4 33 104 97 112 63
44 65 59 61 79 82 85 87 86 88 78 46 47 8 10 6 11 21 5 0 0 0 0 0 0 0 0 0 0 3 0 5 8 7 33 45 12 16 17 4 42 65 52 124 83 40 35
48 46 68 61 69 70 70 75 88 100 114 82 21 18 19 13 1 12 3 0 0 0 1 0 1 0 0 0 0 0 0 11 8 26 14 37 17 6 44 12 7 17 33 29 8 85 68
20 32 52 41 70 80 89 71 88 104 105 96 33 22 43 25 33 31 1 0 0 0 4 0 1 0 0 1 0 3 0 8 13 19 14 5 15 8 15 10 0 59 13 11 17 11 4
33 39 51 46 67 84 89 91 106 138 202 223 126 73 59 34 20 23 0 0 6 14 1 0 4 6 12 5 0 8 13 3 1 20 4 10 20 39 12 4 0 54 62 26 6 8 23
35 51 49 50 56 77 80 86 132 247 265 236 177 105 86 65 9 51 0 11 21 9 0 2 2 3 3 0 1 7 18 31 17 26 22 3 5 10 6 13 20 45 32 22 15 17 9
59 58 54 57 54 63 78 114 225 276 253 217 184 84 11 23 12 47 23 11 6 0 0 0 0 0 3 0 0 0 1 4 2 2 9 80 34 4 2 4 21 5 0 11 1 10 5
47 48 73 53 51 67 84 171 258 243 189 147 233 46 32 16 17 56 10 28 18 0 0 2 0 1 0 0 0 0 0 0 0 5 6 12 12 0 4 0 5 13 0 0 0 0 2
28 48 79 48 50 72 118 213 228 188 155 172 58 21 12 8 24 7 8 16 0 0 0 1 0 0 0 0 0 0 0 0 0 0 0 0 9 0 3 0 0 0 0 0 0 0 4
25 50 48 35 59 63 166 206 176 146 131 111 11 12 14 81 45 4 24 40 0 0 0 0 0 0 0 0 0 0 0 0 0 0 0 0 0 0 0 3 2 0 0 0 0 0 0
34 62 17 41 52 143 199 182 140 120 102 29 13 18 11 8 1 6 22 5 2 0 0 0 0 0 0 0 0 0 0 0 0 0 0 0 0 3 0 0 0 0 0 0 0 0 0
29 14 17 38 71 141 158 132 99 93 63 17 20 6 5 8 48 62 26 13 5 4 5 7 21 0 0 0 0 0 0 0 0 0 0 0 0 0 0 0 0 0 0 0 0 0 0
24 11 19 34 89 140 116 103 64 75 40 10 19 17 7 3 5 10 35 15 9 0 1 6 8 0 0 0 0 0 0 0 0 0 0 0 0 0 0 0 0 0 0 0 0 0 0
6 8 23 46 87 106 79 42 41 55 41 12 12 23 6 34 31 16 10 6 15 4 9 1 24 2 0 0 0 0 0 0 0 0 0 0 0 0 0 0 0 0 0 0 0 0 0
6 13 28 50 64 57 58 45 47 31 10 12 17 26 6 13 10 13 7 9 18 0 14 23 35 0 0 0 0 0 0 0 0 0 0 0 0 0 0 0 0 0 0 0 0 0 0
7 15 29 50 37 55 61 49 51 35 18 10 8 9 22 6 6 20 18 0 4 2 6 0 13 13 0 0 0 0 0 0 0 0 0 0 0 0 0 0 0 0 0 0 0 0 0
9 25 41 25 32 47 56 54 43 42 29 29 12 14 17 2 2 3 0 0 0 29 6 0 0 24 0 0 0 0 0 0 0 0 0 0 0 0 0 0 0 0 0 0 0 0 0
11 23 34 28 34 47 50 33 26 40 45 55 0 3 17 12 8 2 0 1 2 7 0 0 0 0 0 0 2 2 1 0 0 0 0 0 0 0 0 0 0 0 0 0 0 0 0
10 23 26 28 17 37 22 9 25 26 5 0 1 0 0 0 0 0 0 0 10 0 6 0 0 0 0 0 0 0 0 0 0 4 0 0 0 0 0 0 0 0 0 0 0 0 0
8 23 25 16 19 17 8 6 20 2 0 0 0 0 0 0 0 0 6 4 0 0 1 0 0 0 0 0 0 0 0 0 0 0 6 11 7 1 0 0 0 0 0 0 0 0 0
3 17 18 9 22 4 2 13 2 2 0 0 0 0 0 0 0 0 0 0 0 0 5 0 12 1 1 13 0 0 0 0 0 0 0 1 1 1 0 0 0 0 0 0 0 0 0
1 15 10 10 14 7 10 0 0 1 0 0 0 0 0 0 0 0 0 0 0 0 0 0 3 0 0 0 0 0 0 0 0 0 0 0 0 0 0 0 0 0 0 0 0 0 0
CIN
0 0 0 0 0 0 0 0 0 0 0 0 0 -4 0 -4 0 -13 0 0 0 0 0 0 0 -2 -2 0 0 0 0 0 -8 -2 0 0 0 0 0 0 0 0 0 0 0 0 0
0 0 0 0 0 0 0 0 0 0 0 0 0 0 0 0 0 -5 -16 0 0 0 0 0 0 -1 0 0 0 0 0 0 0 -2 0 0 0 0 0 0 0 0 0 -1 0 0 0
0 0 0 0 0 0 0 0 0 0 0 0 0 0 0 0 0 -23 -26 0 0 0 0 -1 -2 0 0 0 0 0 0 0 -3 0 0 0 0 0 0 0 0 0 0 0 0 0 0
0 0 0 0 0 0 0 0 0 0 0 0 0 0 0 -5 -2 -16 -26 -83 0 0 0 -2 0 0 0 0 0 0 0 -2 -14 -2 -3 0 0 0 0 -1 0 0 0 0 -7 0 0
0 0 0 0 0 0 0 0 0 0 0 0 0 0 0 -3 -2 0 -9 0 -1 -1 -1 -1 0 0 0 0 0 0 0 0 0 0 -1 0 -1 0 0 0 0 -1 0 0 0 -2 -5
0 0 0 0 0 0 0 0 0 0 0 0 0 0 0 -7 -1 -8 -66 0 0 0 0 0 0 0 0 0 0 0 0 0 0 0 0 0 0 0 0 0 -2 -2 0 0 0 0 -1
0 0 0 0 0 0 0 0 0 0 0 0 0 0 0 0 0 -14 0 0 0 0 0 0 0 0 0 0 0 0 0 0 -7 -5 0 0 0 0 0 0 -50 0 0 0 -4 -1 0
0 0 0 0 0 -1 0 0 0 0 0 0 0 0 0 0 0 0 -1 0 0 0 0 0 0 0 0 0 0 0 0 0 0 0 0 0 0 0 -1 0 -2 -3 -1 0 -1 0 -4
0 0 0 0 0 0 0 0 0 0 0 0 0 0 0 0 0 0 0 0 0 0 0 0 0 0 0 0 0 -3 0 -2 0 0 0 -1 0 0 0 0 -10 -10 -1 -1 -2 -7 -24
0 0 0 0 0 0 0 0 0 0 0 0 0 0 0 0 0 0 0 0 0 0 0 0 0 0 0 0 0 0 -16 -1 0 -1 -1 0 -2 0 0 -1 -6 -34 -5 -9 -12 0 0
0 0 0 0 0 0 0 0 0 0 -1 -1 -6 0 0 0 0 0 -1 0 0 -1 0 0 0 0 0 0 0 -1 0 -3 0 0 0 -1 -1 -3 0 -1 0 0 -15 -15 -10 -17 -33
0 0 0 0 0 0 0 0 0 -3 0 0 0 0 0 -1 0 -6 0 0 -9 0 0 0 0 0 0 0 0 -1 0 0 -2 -1 0 -1 -5 0 0 0 0 -27 -11 0 -3 -11 -12
0 0 0 0 0 0 0 0 0 0 0 0 0 -4 0 0 0 -14 0 -1 0 0 0 0 0 0 0 0 0 0 0 -1 0 0 0 0 0 0 -1 -7 0 -1 0 -1 -2 -14 0
0 0 0 0 0 0 0 0 0 0 0 0 0 -5 -1 -1 0 -2 -1 0 0 0 0 0 0 0 0 0 0 0 0 0 0 0 0 -7 -1 0 -1 0 0 -1 0 0 0 0 0
0 0 0 0 0 0 0 0 0 0 -1 -5 -1 0 0 0 0 -1 0 0 0 0 0 0 0 0 0 0 0 0 0 0 0 0 0 0 0 0 0 -5 -3 0 0 0 0 0 0
0 0 0 0 -1 0 0 0 0 0 0 0 0 0 0 0 0 -3 0 0 0 0 0 -3 0 0 0 0 0 0 0 0 0 0 0 0 -1 0 0 0 0 0 0 0 0 0 0
0 0 0 0 0 -2 0 0 0 0 0 0 0 0 -1 0 -2 0 0 -1 0 0 0 0 0 0 0 0 0 0 0 0 0 0 0 0 0 0 0 0 0 0 0 0 0 0 0
0 0 0 0 0 0 0 0 0 0 0 -5 0 0 -1 -4 0 0 0 0 -1 0 0 0 0 0 0 0 0 0 0 0 0 0 0 0 0 0 0 0 0 0 0 0 0 0 0
0 0 0 0 -1 0 0 0 0 0 0 0 0 0 -2 -5 0 0 0 0 0 0 -9 -8 -3 0 0 0 0 0 0 0 0 0 0 0 0 0 0 0 0 0 0 0 0 0 0
0 0 0 0 0 0 0 0 0 0 0 -3 0 0 0 0 0 0 0 0 0 0 -16 -18 -17 0 0 0 0 0 0 0 0 0 0 0 0 0 0 0 0 0 0 0 0 -1 0
0 0 0 0 0 0 0 0 0 0 0 -1 0 0 0 0 0 0 0 0 0 0 -14 -32 -8 -5 0 0 0 0 0 0 0 0 0 0 0 0 0 0 0 0 0 0 0 0 0
0 0 0 0 0 0 0 0 0 0 -2 0 0 0 0 0 0 0 0 0 0 0 -6 -4 -4 -20 0 0 0 0 0 0 0 0 0 0 0 0 0 0 0 0 0 0 0 0 0
0 0 0 0 0 0 0 0 0 0 -4 -1 0 -2 0 0 0 0 0 0 0 -7 -4 0 -10 -9 -1 0 0 0 0 0 0 0 0 0 0 0 0 0 0 0 0 0 0 0 0
0 0 0 0 0 0 0 -1 -1 0 -1 0 -2 -1 0 0 0 0 0 0 -9 -2 -5 0 0 -6 0 0 0 0 0 0 0 0 0 0 0 0 0 0 0 0 0 0 0 0 0
0 0 0 0 0 0 0 0 0 0 0 0 -1 -2 -1 0 -1 -2 0 0 0 -9 -1 0 0 0 0 0 -3 0 0 0 0 0 0 0 0 0 0 0 0 0 0 0 0 0 0
0 0 0 0 0 -1 0 0 0 0 -15 0 0 0 0 0 0 0 0 0 0 0 -10 0 0 0 0 0 0 0 0 0 0 -1 -2 0 0 0 0 0 0 0 0 0 0 0 0
0 0 0 0 0 0 0 0 0 0 0 0 0 0 0 0 0 0 -1 0 0 0 0 0 0 0 -14 -2 0 0 0 0 0 0 0 0 -4 0 0 0 0 0 0 0 0 0 0
0 0 0 0 0 0 0 -3 0 0 0 0 0 0 0 0 0 0 0 0 0 0 -1 0 -2 -10 -2 -5 -2 0 0 0 0 0 0 0 0 0 0 0 0 0 0 0 0 0 0
0 0 0 0 0 0 -13 -3 0 0 0 0 0 0 0 0 0 0 0 0 0 0 0 0 -1 0 -1 0 0 0 0 0 0 0 0 0 0 0 0 0 0 0 0 0 0 0 0
Wind_Speed
18 19 20 21 20 21 21 21 21 22 21 23 25 25 24 21 23 13 11 7 6 8 6 8 4 6 4 3 8 2 5 3 2 3 5 6 9 10 12 9 11 20 20 18 21 21 20
20 18 19 21 20 20 21 23 23 22 23 22 24 24 23 24 19 13 11 7 7 4 4 5 1 9 3 7 2 4 3 2 6 7 7 6 7 7 10 10 13 10 13 21 20 18 18
19 20 19 21 21 21 21 21 22 23 23 24 22 24 25 26 27 21 13 8 5 4 4 4 5 5 5 11 4 4 4 6 7 9 10 8 8 8 2 9 11 17 17 15 19 19 12
19 19 20 20 21 21 23 21 22 24 23 23 23 25 24 29 32 27 13 8 6 4 4 6 5 4 7 2 2 7 9 7 7 8 9 8 8 12 15 2 7 11 11 10 5 13 16
18 21 20 20 21 20 21 22 22 22 23 23 24 27 26 30 31 11 11 6 3 5 5 5 4 4 6 2 3 3 5 8 7 9 8 8 5 8 4 3 6 7 5 11 6 15 15
20 22 20 21 20 21 20 21 21 22 22 23 25 26 27 28 35 11 9 5 2 3 5 4 2 3 4 3 4 3 2 5 7 6 8 9 7 5 4 6 5 5 7 6 11 11 18
21 21 22 20 21 20 20 20 21 21 20 20 24 25 26 27 23 12 8 5 4 4 9 9 9 3 4 5 2 5 4 5 6 5 5 7 7 9 9 9 13 12 9 10 8 9 13
21 21 23 22 22 22 22 21 21 22 20 19 21 24 25 25 23 5 1 3 4 3 6 16 6 7 3 4 4 6 5 6 5 5 4 5 10 7 3 10 9 13 13 6 3 10 3
23 23 22 23 21 23 23 25 24 26 23 20 19 22 23 26 19 2 3 4 2 2 5 4 7 6 4 8 4 5 9 3 5 6 8 6 9 5 6 6 10 16 12 8 5 8 3
21 23 23 23 24 24 21 24 24 24 24 22 19 20 20 24 10 2 4 7 5 2 3 6 7 6 6 4 4 4 8 3 6 4 4 7 3 6 8 3 4 8 8 8 7 8 3
20 21 23 22 25 25 23 25 22 25 22 22 20 19 18 16 11 5 4 2 3 3 4 8 6 5 6 6 3 7 4 5 6 3 4 1 2 6 7 2 3 3 12 10 8 4 1
20 21 21 22 23 24 25 24 23 25 23 23 21 20 18 9 6 4 2 2 2 4 6 6 6 7 6 6 4 4 5 3 3 4 2 5 5 3 3 1 7 7 9 7 4 4 3
20 20 22 23 23 24 23 23 24 26 24 22 22 19 16 11 4 7 1 3 4 5 2 7 5 7 7 6 5 6 4 4 2 3 3 2 4 4 2 3 3 8 5 2 2 4 4
18 21 22 23 24 23 25 24 27 26 25 23 21 21 14 12 7 7 4 3 7 3 3 4 5 9 5 6 3 4 4 1 5 2 0 2 3 7 6 4 3 4 5 5 3 3 5
14 17 24 23 23 23 24 26 27 26 25 25 27 8 8 12 12 8 5 4 2 1 4 7 8 7 4 4 2 4 2 1 2 3 2 2 4 6 4 3 2 2 1 6 3 5 5
10 18 23 22 22 23 25 26 26 26 25 26 7 7 6 9 16 11 3 1 2 1 4 8 2 2 6 6 4 2 1 2 2 2 3 2 4 7 3 4 3 2 3 2 2 3 5
13 17 21 22 22 22 25 26 25 25 25 21 4 4 7 15 10 4 2 3 2 2 4 3 2 4 2 4 1 2 3 3 4 3 1 1 3 5 4 6 8 4 1 2 3 4 2
12 17 20 22 21 23 25 25 25 24 25 4 3 2 5 3 4 1 3 4 4 5 3 3 1 3 4 3 3 2 3 3 5 4 4 4 5 3 3 2 4 5 7 5 3 4 4
14 18 20 21 21 24 24 23 23 23 19 4 6 3 5 4 3 2 3 4 3 1 3 3 1 0 1 3 4 2 3 3 5 3 3 3 4 3 1 2 2 3 4 4 3 2 5
15 19 20 21 22 23 22 21 21 20 11 4 4 3 3 4 3 5 4 3 2 5 6 2 2 2 3 4 6 4 4 4 3 4 6 1 4 4 3 4 4 2 5 7 6 4 6
16 18 19 21 22 22 20 20 20 18 13 3 4 4 3 2 4 5 3 1 3 3 6 2 2 2 4 4 4 4 3 3 3 5 2 1 5 4 6 5 2 3 5 8 8 5 5
16 18 19 21 19 20 20 20 18 16 11 2 3 3 2 2 5 5 1 0 2 4 3 3 1 5 2 4 2 5 5 1 1 3 3 3 5 4 3 4 5 3 5 5 5 3 5
16 18 19 20 21 22 21 19 16 11 4 1 1 2 2 2 2 2 3 3 2 3 3 4 1 5 9 5 4 7 5 6 4 1 4 4 3 1 2 4 2 5 4 2 3 1 1
16 18 19 20 21 21 21 18 12 10 2 1 1 1 2 2 1 1 2 7 2 4 2 5 4 2 3 10 13 12 13 10 10 9 5 4 4 3 2 5 3 3 2 3 3 4 4
16 18 18 19 20 22 21 14 16 13 9 4 1 2 1 2 1 1 1 3 2 5 5 3 5 3 6 2 5 5 2 2 6 8 7 3 3 3 1 0 2 3 3 2 2 2 1
15 18 18 19 21 21 18 17 16 15 4 3 2 1 1 2 3 2 2 1 3 2 1 3 4 2 3 2 2 2 2 2 3 3 5 5 5 2 1 1 3 4 2 2 2 3 2
16 17 18 20 21 21 20 20 16 6 10 3 2 0 0 3 2 2 0 3 3 2 3 3 2 2 3 2 2 1 3 2 3 5 4 3 2 3 3 3 3 3 3 2 2 4 4
16 18 18 21 22 22 23 19 7 13 13 3 3 2 1 3 2 1 2 0 2 1 1 5 3 1 3 2 1 1 1 2 2 2 4 5 5 4 4 4 4 5 5 4 4 3 3
15 17 18 21 21 22 21 8 11 18 11 4 3 2 3 3 4 0 2 2 2 1 2 1 3 2 2 3 1 2 2 3 2 3 2 5 3 1 5 1 3 4 1 1 1 1 3
Wind_Direction
358 358 354 350 351 350 350 349 352 349 347 346 337 338 339 339 354 214 214 219 255 271 287 292 286 110 150 200 254 223 301 331 163 175 248 254 252 253 258 269 273 243 257 260 251 254 251
359 358 354 347 354 353 351 350 352 348 342 344 340 337 342 336 337 296 211 215 251 257 275 286 260 138 184 247 67 207 198 265 238 228 245 240 256 266 284 274 262 270 274 255 247 251 244
357 352 352 351 351 353 351 351 348 344 344 338 345 342 333 333 330 321 206 211 224 252 267 237 210 188 207 247 149 175 231 257 239 233 253 255 257 248 283 278 260 264 245 256 233 239 243
355 352 351 346 348 350 343 345 344 341 340 345 344 344 338 338 332 313 185 199 219 216 232 220 208 167 250 217 193 242 246 246 234 227 240 265 249 258 254 283 287 259 233 246 152 200 248
350 348 349 346 342 342 340 342 341 337 342 344 345 342 335 333 325 246 169 179 216 234 216 187 182 205 251 163 199 235 233 254 238 231 234 247 228 239 192 218 235 217 235 227 290 245 209
343 341 341 337 336 335 337 336 340 337 339 341 342 344 341 336 333 160 134 78 274 167 186 166 125 214 216 202 148 181 171 224 225 234 238 224 225 236 224 219 231 187 207 254 236 183 200
335 335 333 334 328 329 328 329 328 331 337 339 341 341 341 342 346 134 116 121 132 158 221 196 197 195 131 107 150 198 169 187 206 225 225 201 241 241 250 253 268 291 212 228 192 159 173
334 329 334 327 325 328 331 329 328 326 328 333 335 335 336 338 346 88 40 211 251 17 232 224 220 238 244 147 226 203 187 219 200 243 229 234 246 267 276 265 221 246 212 179 128 134 178
331 329 328 326 330 326 329 329 329 325 323 325 329 330 333 333 332 265 221 238 320 259 254 182 194 200 211 170 228 197 191 210 238 240 219 246 295 188 223 279 203 212 197 133 111 131 110
323 326 323 330 329 332 325 320 329 326 322 320 321 325 329 335 308 291 233 233 212 256 270 169 189 182 135 192 230 160 204 234 205 254 237 248 260 222 232 231 272 181 168 156 164 193 149
322 328 326 330 329 324 321 322 330 324 320 313 318 320 324 337 297 250 325 358 120 249 241 133 136 138 135 212 105 200 175 181 253 202 246 317 254 236 250 291 272 121 162 216 237 255 175
314 325 324 327 329 327 320 324 326 320 321 321 319 318 319 316 296 268 299 117 208 203 231 157 135 174 159 200 191 137 207 222 278 266 244 296 331 298 233 98 236 158 149 173 204 230 101
309 321 327 327 331 328 323 328 321 319 323 322 315 316 314 290 252 138 88 184 196 233 135 158 171 165 195 165 192 198 202 191 284 246 167 318 318 285 287 64 105 171 170 168 145 52 48
311 326 326 328 327 328 334 327 324 324 327 318 312 309 261 259 237 181 159 206 216 119 171 118 149 136 193 161 189 194 176 179 219 170 333 7 85 349 348 28 115 33 341 324 91 99 86
312 330 325 325 328 337 333 328 327 329 325 320 316 270 258 234 216 180 159 215 14 135 132 133 141 149 156 174 212 194 184 86 22 206 341 151 47 323 24 357 328 127 340 342 85 62 101
349 338 320 324 334 340 333 331 331 331 329 327 307 305 272 221 169 145 169 211 15 31 104 157 138 204 160 165 181 211 53 43 44 26 266 104 103 9 328 275 166 351 1 207 248 129 101
356 321 320 330 340 339 332 333 334 334 333 338 286 329 2 121 123 102 170 61 317 39 48 259 126 135 163 145 115 83 65 39 5 28 58 338 7 342 304 25 359 360 56 94 108 356 90
331 314 335 333 340 336 332 335 335 335 341 355 295 339 322 139 86 216 112 106 360 8 336 304 234 95 167 147 103 98 105 45 352 341 32 28 82 60 14 4 314 303 336 322 332 101 37
326 340 336 336 338 335 336 339 337 343 2 325 339 357 354 3 117 115 77 67 37 309 274 274 193 260 160 126 121 102 94 28 21 37 22 10 38 116 39 172 196 3 8 357 10 58 38
339 342 334 338 339 337 341 339 339 346 11 349 350 37 52 17 333 115 86 64 0 285 264 265 66 120 139 81 50 118 102 38 23 73 39 108 53 360 47 32 335 358 9 8 12 43 79
352 339 334 338 340 341 342 340 342 346 355 4 3 30 332 77 57 89 77 18 182 287 226 72 180 167 134 103 91 106 101 112 59 6 110 105 92 65 55 28 328 18 30 33 47 35 54
348 334 338 335 339 340 339 342 341 345 2 33 360 355 57 60 125 107 34 56 190 282 288 194 150 134 102 106 15 154 128 103 17 42 50 54 124 157 119 15 14 61 58 82 45 45 74
342 332 336 336 341 342 341 337 334 340 50 18 215 286 308 4 68 155 172 198 84 277 82 26 203 127 79 49 75 89 63 74 80 26 62 34 121 352 65 349 270 126 21 70 76 320 337
334 333 337 341 340 339 336 335 340 328 295 165 247 252 264 66 284 245 220 228 20 358 66 15 4 82 59 119 105 89 81 81 66 47 22 93 69 20 12 310 62 71 11 13 274 265 209
330 333 342 336 338 337 335 343 333 321 304 213 140 204 249 90 289 127 10 181 181 42 45 18 16 15 137 345 109 116 87 114 38 35 23 32 101 82 27 340 339 148 189 224 236 160 241
331 333 335 338 337 334 335 331 323 323 105 104 113 96 270 251 67 330 276 250 114 100 89 51 33 6 282 52 83 115 121 99 122 101 29 47 56 29 83 247 218 76 141 196 243 201 149
328 334 337 338 335 335 333 327 310 288 152 106 100 198 145 108 71 290 350 78 79 124 78 57 43 340 359 22 76 84 110 340 154 159 163 158 154 213 195 268 265 175 122 115 229 78 147
329 334 338 340 337 337 337 331 134 141 132 96 77 4 292 89 80 273 343 192 152 316 173 137 170 98 89 34 290 119 172 127 188 118 178 194 179 195 200 239 267 145 137 223 49 100 167
325 335 343 342 341 344 353 82 129 140 112 104 104 62 43 62 84 113 84 86 52 324 307 70 16 108 114 131 185 161 156 174 185 197 187 215 237 223 232 248 61 188 305 113 175 174 196